Location: Most
(50.5133°N, 13.6207°E)
Time: 09:18:34
(UTC+02:00)

UNHA 3 R/B - Visible Passes

Search period start: 21 September 2020 00:00
Search period end: 01 October 2020 00:00
Orbit: 477 x 558 km, 97.4° (Epoch: 21 September)

Date Brightness Start Highest point End Pass type
(mag) Time Alt. Az. Time Alt. Az. Time Alt. Az.
21 Sep 8.4 04:04:32 10° ENE 04:05:33 11° E 04:06:35 10° ESE visible
21 Sep 5.1 05:36:26 10° N 05:40:09 76° WNW 05:43:56 10° SSW visible
22 Sep 5.3 05:22:16 10° NNE 05:26:00 75° ESE 05:29:49 10° S visible
23 Sep 6.0 05:08:09 10° NNE 05:11:50 52° E 05:15:34 10° S visible
24 Sep 6.7 04:54:07 10° NNE 04:57:38 36° E 05:01:12 10° SSE visible
25 Sep 7.3 04:40:11 10° NE 04:43:25 26° E 04:46:42 10° SSE visible
25 Sep 6.1 06:14:12 10° N 06:17:32 30° WNW 06:20:56 10° SW visible
26 Sep 7.8 04:26:22 10° NE 04:29:10 19° E 04:32:00 10° SE visible
26 Sep 5.6 05:59:52 10° N 06:03:28 42° WNW 06:07:06 10° SW visible
27 Sep 8.2 04:12:46 10° NE 04:14:53 14° E 04:17:02 10° ESE visible
27 Sep 5.3 05:45:37 10° N 05:49:21 60° WNW 05:53:10 10° SSW visible
28 Sep 8.5 04:00:06 10° E 04:00:35 10° E 04:01:05 10° E visible
28 Sep 5.2 05:31:24 10° NNE 05:35:13 85° WNW 05:39:07 10° SSW visible
29 Sep 5.6 05:17:14 10° NNE 05:21:04 68° ESE 05:24:58 10° S visible
30 Sep 6.2 05:03:09 10° NNE 05:06:53 47° E 05:10:41 10° S visible
